www.pogodaiklimat.ru

Погода и климат >> Архив погоды >> Великобритания >> Алтнахарра


ПОГОДА на Алтнахарре

  • Прогноз погоды на Алтнахарре
  • Монитор погоды на Алтнахарре

АРХИВ ПОГОДЫ на Алтнахарре

Время (UTC), дата Ветер
(напр.,м/с)
 
Видим.   Явления Облачность Т
(С)
Тd
(С)
f
(%)
Тe
(С)
Тes
(С)
Комфортность P
(гПа)
Po
(гПа)
Тmin
(С)
Tmax
(С)
R
(мм)
R24
(мм)
S
(см)
07 12.08 З 1 45 км н/о +8.0 +7.8 99 +8 +8 1011.0 1001.1
08 12.08 Ю 1 50 км н/о +12.4 +7.4 72 +12 +12 1011.0 1001.2
09 12.08 З 1 45 км н/о +13.1 +6.8 66 +13 +13 1010.9 1001.2
10 12.08 ЮЗ 2 50 км н/о +13.2 +4.9 57 +13 +13 1010.9 1001.2
11 12.08 З 3 50 км н/о +14.8 +6.6 58 +14 +14 1010.5 1000.9
12 12.08 З 2 50 км н/о 1000.8
13 12.08 ЮЗ 3 27 км н/о +16.8 +6.8 52 +17 +17 1010.2 1000.6
14 12.08 ЮЗ 4 30 км н/о +17.9 +5.7 45 +18 +18 1010.2 1000.6
15 12.08 З 0 50 км н/о 1000.7
16 12.08 0 н/о 1000.6
17 12.08 0 н/о 1000.6
18 12.08 ЮЗ 0 н/о ливневой дождь н/о 1001.0 9
19 12.08 0 н/о 1001.0
20 12.08 0 н/о 1001.3
21 12.08 ЮЗ 2 50 км н/о +10.3 +8.1 86 +9 +9 1011.3 1001.5
22 12.08 СЗ 1 45 км н/о +9.4 +7.8 90 +9 +9 1011.4 1001.6
23 12.08 В 1 50 км н/о +7.5 +6.6 94 +8 +8 1011.6 1001.7
00 13.08 Ю 3 50 км в посл. час дождь н/о +9.5 +7.7 89 +7 +7 1011.4 1001.6 0.0
01 13.08 Ю 2 35 км слаб. ливневой дождь н/о +9.5 +8.1 91 +8 +8 1011.4 1001.5
02 13.08 Ю 1 50 км в посл. час дождь н/о +9.0 +7.8 92 +9 +9 1011.4 1001.5
03 13.08 СВ 1 10 км ливневой дождь н/о +8.8 +7.8 93 +8 +8 1011.3 1001.4
04 13.08 ЮЗ 2 50 км слаб. дождь н/о +9.5 +8.1 91 +8 +8 1011.1 1001.3
05 13.08 Ю 1 35 км в посл. час дождь н/о +8.8 +7.6 92 +8 +8 1011.0 1001.1
06 13.08 ЮВ 1 45 км в посл. час дождь н/о +9.9 +8.7 92 +9 +9 1010.8 1001.0 1
07 13.08 ЮЗ 2 9000 м ливневой дождь н/о +10.4 +9.2 92 +9 +9 1011.2 1001.4
08 13.08 Ю 4 16 км слаб. ливневой дождь н/о +11.1 +9.3 89 +9 +9 1011.2 1001.4
09 13.08 Ю 3 30 км в посл. час дождь н/о +13.0 +9.5 79 +12 +12 1011.0 1001.3
10 13.08 ЮЗ 4 40 км н/о +14.4 +7.8 65 +13 +13 1010.7 1001.1
11 13.08 ЮЗ 6 6000 м ливневой дождь н/о +12.3 +8.3 77 +10 +10 1011.0 1001.3
12 13.08 ЮЗ 5 45 км в посл. час дождь н/о +15.3 +8.0 62 +14 +14 1010.6 1000.9 0.4
13 13.08 ЮЗ 6 40 км н/о +14.4 +6.9 61 +13 +13 1010.6 1001.0
14 13.08 ЮЗ 8
{13}
17 км н/о +12.8 +7.7 71 +10 +10 1011.0 1001.3
15 13.08 ЮЗ 5 50 км н/о +13.6 +6.5 62 +12 +12 1011.0 1001.3
16 13.08 ЮЗ 6 22 км в посл. час дождь н/о +14.4 +7.5 63 +13 +13 1010.7 1001.0
17 13.08 ЮЗ 5
{15}
35 км н/о +13.0 +7.8 71 +11 +11 1010.9 1001.2
18 13.08 ЮЗ 4 40 км слаб. ливневой дождь н/о +12.7 +7.6 71 +11 +11 1011.0 1001.3 +15.8 0.4
19 13.08 ЮЗ 3 50 км слаб. дождь н/о +11.2 +8.6 84 +10 +10 1011.0 1001.2
20 13.08 ЮЗ 1 45 км в посл. час дождь н/о +10.3 +7.4 82 +10 +10 1010.9 1001.1
21 13.08 ЮЗ 4 30 км н/о +9.0 +6.5 84 +6 +6 1011.0 1001.1
22 13.08 СЗ 1 28 км н/о +7.4 +5.9 90 +6 +6 1011.0 1001.1
23 13.08 ЮЗ 2 35 км ливневой дождь н/о +8.8 +7.9 94 +7 +7 1010.8 1001.0
00 14.08 Ю 3 27 км в посл. час дождь н/о +9.7 +8.1 90 +7 +7 1010.8 1001.0 0.6
01 14.08 Ю 2 45 км н/о +9.7 +7.6 87 +8 +8 1010.7 1000.9
02 14.08 Ю 3 14 км слаб. морось с дождем н/о +10.5 +7.6 82 +8 +8 1010.5 1000.7
03 14.08 Ю 3 12 км в посл. час дождь н/о +10.2 +7.3 82 +8 +8 1010.0 1000.2
04 14.08 Ю 4 30 км в посл. час дождь н/о +9.5 +7.4 87 +7 +7 1009.6 999.7
05 14.08 СВ 1 30 км н/о +8.6 +6.8 88 +8 +8 1009.5 999.6
06 14.08 Ю 2 40 км н/о +9.6 +7.1 84 +8 +8 1009.1 999.3 +6.8 0.6
07 14.08 Ю 2 30 км н/о +11.1 +7.8 80 +10 +10 1008.8 999.0
08 14.08 Ю 2 40 км н/о +12.0 +7.4 73 +11 +11 1008.5 998.8
09 14.08 Ю 3 50 км н/о +13.2 +7.6 69 +12 +12 1008.1 998.4
10 14.08 ЮВ 3 45 км н/о +14.2 +7.2 63 +14 +14 1007.7 998.0
11 14.08 В 4 40 км н/о +15.0 +7.9 62 +14 +14 1007.0 997.4
12 14.08 ЮВ 3 29 км н/о +16.7 +7.8 56 +17 +17 1006.3 996.8
13 14.08 ЮВ 4 50 км н/о +16.6 +8.7 60 +16 +16 1005.9 996.3
14 14.08 ЮВ 6 45 км н/о +14.9 +7.2 60 +13 +13 1005.3 995.7
15 14.08 ЮВ 5 50 км н/о +14.9 +8.6 66 +13 +13 1004.7 995.1
16 14.08 В 4 40 км н/о +15.0 +9.1 68 +14 +14 1003.8 994.2
17 14.08 ЮВ 4 50 км н/о +15.3 +9.5 68 +14 +14 1003.1 993.5
18 14.08 В 3 50 км в посл. час дождь н/о +14.9 +10.2 73 +14 +14 1002.5 992.9 +17.0 0.0
19 14.08 СВ 6 50 км слаб. ливневой дождь н/о +13.5 +10.6 83 +11 +11 1002.0 992.4
20 14.08 С 4 16 км дождь н/о +13.3 +10.7 84 +12 +12 1001.5 991.9
21 14.08 З 2 17 км дождь н/о +12.0 +10.8 92 +11 +11 1001.0 991.3
22 14.08 ЮЗ 1 15 км дождь н/о +11.8 +11.3 97 +11 +11 1000.3 990.6
23 14.08 СЗ 2 50 км слаб. ливневой дождь н/о +12.1 +11.3 95 +11 +11 999.8 990.2
00 15.08 СВ 4 45 км слаб. морось с дождем н/о +13.1 +11.7 91 +11 +11 999.2 989.6 5
01 15.08 ЮЗ 2 19 км ливневой дождь н/о +12.5 +11.8 95 +12 +12 998.8 989.2
02 15.08 С 2 50 км в посл. час дождь н/о +12.4 +12.0 97 +11 +11 998.5 988.9
03 15.08 Ю 2 50 км н/о +12.9 +12.4 97 +12 +12 998.4 988.8
04 15.08 ЮЗ 2 50 км н/о +13.0 +12.1 94 +12 +12 998.4 988.8
05 15.08 ЮЗ 1 8000 м слаб. морось с дождем н/о +12.9 +12.0 94 +13 +13 998.6 989.0
06 15.08 З 4 3300 м слаб. морось н/о +12.9 +12.6 98 +11 +11 999.6 990.0 +11.8 6
07 15.08 З 8-13
{14}
17 км в посл. час морось н/о +11.5 +10.5 94 +8 +8 1001.4 991.7
08 15.08 З 6 16 км н/о +11.3 +10.1 92 +8 +8 1002.8 993.1
09 15.08 З 8
{13}
45 км в посл. час дождь н/о +12.0 +9.3 84 +9 +9 1003.6 994.0
10 15.08 З 8 35 км н/о +13.6 +9.4 76 +11 +11 1004.2 994.6
11 15.08 З 9 45 км в посл. час дождь н/о +14.6 +9.6 72 +12 +12 1004.8 995.2
12 15.08 З 8
{14}
50 км н/о +14.7 +7.9 64 +13 +13 1005.5 995.9 0.2
13 15.08 З 8
{14}
35 км н/о +14.9 +6.8 58 +13 +13 1006.1 996.5
14 15.08 ЮЗ 7 35 км н/о +15.0 +8.5 65 +13 +13 1006.5 996.9
15 15.08 ЮЗ 8 35 км н/о +15.4 +7.9 61 +14 +14 1006.9 997.3
16 15.08 З 6 50 км н/о +13.9 +7.2 64 +12 +12 1007.4 997.7
17 15.08 ЮЗ 5 50 км н/о +14.2 +7.3 63 +13 +13 1007.5 997.8
18 15.08 ЮЗ 6 35 км н/о +14.3 +5.4 55 +13 +13 1007.5 997.9 +16.0 0.2
19 15.08 ЮЗ 3 50 км н/о +13.2 +6.0 62 +12 +12 1007.6 997.9
20 15.08 ЮВ 2 50 км слаб. ливневой дождь н/о +11.9 +7.9 76 +11 +11 1007.3 997.6
21 15.08 ЮВ 2 50 км в посл. час дождь н/о +12.9 +7.7 71 +12 +12 1007.0 997.3
22 15.08 З 2 50 км н/о +11.3 +7.8 79 +10 +10 1006.3 996.6
23 15.08 ЮЗ 1 50 км слаб. ливневой дождь н/о +12.3 +8.0 75 +12 +12 1005.6 995.9
00 16.08 Ю 3 27 км слаб. дождь н/о +12.5 +9.5 82 +11 +11 1004.8 995.1 0.0
01 16.08 СЗ 3 50 км в посл. час дождь н/о +11.1 +9.8 92 +9 +9 1004.0 994.3
02 16.08 СЗ 3 35 км слаб. дождь н/о +11.5 +10.4 93 +10 +10 1002.9 993.2
03 16.08 ЮЗ 2 50 км в посл. час дождь н/о +14.4 +11.4 82 +14 +14 1001.9 992.3
04 16.08 СВ 3 45 км слаб. ливневой дождь н/о +14.4 +11.5 83 +13 +13 1000.7 991.2
05 16.08 ЮВ 6 28 км дождь н/о +14.0 +11.8 87 +12 +12 999.8 990.3
06 16.08 ЮВ 5 19 км дождь н/о +14.1 +11.8 86 +12 +12 998.6 989.1 +10.8 1
07 16.08 ЮВ 7 14 км дождь н/о +14.1 +11.6 85 +12 +12 997.7 988.2
08 16.08 ЮВ 7
{13}
20 км слаб. дождь н/о +14.4 +11.7 84 +12 +12 996.7 987.2
09 16.08 ЮВ 9
{14}
50 км слаб. ливневой дождь н/о +15.1 +11.9 81 +13 +13 995.6 986.1
10 16.08 В 9
{13}
45 км в посл. час дождь н/о +15.8 +12.1 79 +14 +14 994.0 984.6
11 16.08 В 9
{13}
50 км в посл. час дождь н/о +17.0 +12.2 73 +16 +16 992.8 983.4
12 16.08 ЮВ 8-13
{14}
50 км н/о +19.2 +14.1 72 +20 +20 991.9 982.5 1
13 16.08 ЮВ 6 40 км в посл. час дождь н/о +20.1 +14.3 69 +22 +22 комфорт 991.1 981.8
14 16.08 Ю 7 30 км н/о +20.9 +13.5 63 +23 +23 комфорт 990.3 981.1
15 16.08 Ю 6
{13}
3300 м сильн. ливневой дождь н/о +16.1 +15.0 93 +15 +15 991.2 981.8
16 16.08 Ю 3 30 км в посл. час дождь н/о +18.1 +14.2 78 +18 +18 990.9 981.5
17 16.08 Ю 4 45 км н/о +17.3 +11.0 66 +17 +17 990.8 981.4
18 16.08 Ю 5 30 км н/о +16.8 +11.4 70 +16 +16 990.5 981.1 +21.5 3
19 16.08 Ю 4 40 км н/о +16.8 +10.9 68 +16 +16 990.3 980.9
20 16.08 Ю 2 45 км н/о +15.9 +10.5 70 +16 +16 990.4 981.0
21 16.08 Ю 2 40 км н/о +14.7 +10.7 77 +15 +15 990.6 981.2
22 16.08 Ю 2 45 км н/о +14.3 +11.0 81 +14 +14 990.4 980.9
23 16.08 Ю 3 45 км н/о +13.9 +10.4 79 +13 +13 989.7 980.3
00 17.08 Ю 2 50 км н/о +13.8 +9.5 75 +13 +13 989.3 979.8
01 17.08 СЗ 3 50 км н/о +11.4 +8.8 84 +10 +10 989.3 979.7
02 17.08 С 3 30 км н/о +9.6 +8.5 93 +7 +7 988.9 979.3
03 17.08 СЗ 2 40 км н/о +10.9 +10.2 95 +10 +10 988.2 978.7
04 17.08 СЗ 1 29 км н/о +10.0 +8.9 93 +9 +9 988.0 978.4
05 17.08 З 2 35 км слаб. ливневой дождь н/о +10.7 +10.2 97 +10 +10 987.8 978.2
06 17.08 Ю 2 14 км слаб. дождь н/о +11.6 +11.0 96 +10 +10 988.0 978.4 +9.0 0.8
07 17.08 З 4 35 км в посл. час дождь н/о +11.1 +9.1 87 +9 +9 989.1 979.6
08 17.08 З 4 30 км н/о +13.0 +10.2 83 +11 +11 989.1 979.6
09 17.08 ЮЗ 5 26 км н/о +14.7 +8.4 66 +13 +13 988.8 979.3
10 17.08 Ю 5 29 км н/о +14.6 +7.7 63 +13 +13 989.2 979.8
11 17.08 Ю 4 35 км н/о +14.9 +8.5 66 +14 +14 989.7 980.3
12 17.08 Ю 5 45 км н/о +14.0 +8.8 71 +12 +12 989.9 980.5 0.0
13 17.08 Ю 7 11 км н/о +15.0 +8.1 63 +13 +13 990.3 980.8
14 17.08 Ю 5 14 км слаб. ливневой дождь н/о +14.7 +8.8 68 +13 +13 990.2 980.7
15 17.08 Ю 4 35 км в посл. час дождь н/о +14.8 +8.5 66 +14 +14 990.0 980.6
16 17.08 Ю 6 50 км в посл. час дождь н/о +16.5 +8.6 60 +16 +16 989.5 980.1
17 17.08 Ю 5
{14}
30 км н/о +15.0 +7.6 61 +14 +14 989.7 980.3
18 17.08 ЮВ 4 40 км в посл. час дождь н/о +13.2 +8.9 75 +12 +12 989.7 980.1 +17.0 0.6
19 17.08 ЮВ 3 13 км дождь н/о +11.3 +9.2 87 +10 +10 989.4 979.9
20 17.08 ЮВ 7-13
{13}
40 км в посл. час дождь н/о +12.5 +8.9 79 +10 +10 988.9 979.4
21 17.08 ЮВ 5 45 км в посл. час дождь н/о +12.4 +9.0 80 +10 +10 988.7 979.2
22 17.08 ЮВ 5
{13}
35 км н/о +12.7 +8.5 76 +11 +11 988.5 979.0
23 17.08 ЮВ 7 35 км слаб. ливневой дождь н/о +13.5 +8.5 72 +11 +11 988.1 978.7
00 18.08 ЮВ 7 40 км слаб. морось с дождем н/о +13.0 +8.8 76 +10 +10 987.9 978.4 2
01 18.08 ЮВ 5
{13}
35 км в посл. час дождь н/о +13.0 +8.9 76 +11 +11 987.7 978.2
02 18.08 ЮВ 3 50 км слаб. морось с дождем н/о +12.4 +9.5 82 +11 +11 987.4 977.9
03 18.08 ЮВ 3 30 км слаб. ливневой дождь н/о +13.1 +9.5 79 +12 +12 987.0 977.5
04 18.08 Ю 6 50 км слаб. ливневой дождь н/о +12.6 +9.8 83 +10 +10 986.8 977.3
05 18.08 ЮВ 4 45 км в посл. час дождь н/о +12.8 +9.9 83 +11 +11 986.8 977.3
06 18.08 Ю 3 45 км в посл. час дождь н/о +11.9 +9.4 85 +10 +10 986.6 977.1 +11.1 2
07 18.08 Ю 4 45 км н/о +14.0 +9.9 76 +13 +13 986.5 977.1
08 18.08 ЮВ 4 40 км н/о +15.3 +9.0 66 +14 +14 986.4 977.0
09 18.08 ЮВ 4 50 км н/о +15.0 +9.0 67 +14 +14 986.5 977.1
10 18.08 ЮВ 3 50 км н/о +15.4 +10.3 72 +15 +15 986.5 977.1
11 18.08 ЮВ 6 50 км н/о +15.9 +10.1 68 +15 +15 986.4 977.0
12 18.08 ЮЗ 2 50 км слаб. ливневой дождь н/о +15.2 +11.7 80 +15 +15 986.5 977.0 0.2
13 18.08 Ю 6 40 км в посл. час дождь н/о +15.1 +10.6 74 +14 +14 986.8 977.4
14 18.08 З 5 50 км в посл. час дождь н/о +15.3 +11.5 78 +14 +14 987.8 978.4
15 18.08 ЮЗ 7 26 км н/о +16.6 +11.1 70 +15 +15 988.5 979.1
16 18.08 З 7 30 км н/о +15.7 +10.7 72 +14 +14 989.2 979.8
17 18.08 З 5 40 км слаб. ливневой дождь н/о +13.6 +11.6 88 +12 +12 990.1 980.6
18 18.08 З 7 11 км в посл. час дождь н/о +13.8 +11.2 84 +11 +11 990.9 981.4 +17.3 2
19 18.08 З 6 40 км слаб. морось с дождем н/о +12.7 +11.5 92 +10 +10 992.0 982.5
20 18.08 З 6 20 км в посл. час дождь н/о +11.9 +10.7 92 +9 +9 993.0 983.4
21 18.08 З 5 29 км в посл. час дождь н/о +12.1 +10.5 90 +10 +10 993.9 984.3
22 18.08 З 5 7000 м ливневой дождь н/о +12.5 +11.7 95 +10 +10 994.4 984.8
23 18.08 ЮЗ 3 25 км слаб. морось с дождем н/о +12.6 +11.3 92 +11 +11 995.1 985.5
00 19.08 ЮЗ 3 40 км слаб. дождь н/о +12.3 +11.2 93 +11 +11 995.6 986.0 3
01 19.08 ЮЗ 4 35 км слаб. морось с дождем н/о +12.5 +11.1 91 +10 +10 996.0 986.4
02 19.08 З 4 40 км слаб. морось с дождем н/о +12.3 +11.0 92 +10 +10 996.2 986.6
03 19.08 ЮЗ 4 50 км слаб. морось с дождем н/о +12.4 +10.5 88 +11 +11 996.5 986.9
04 19.08 ЮЗ 3 45 км в посл. час дождь н/о +12.0 +10.8 92 +10 +10 996.8 987.2
05 19.08 ЮЗ 6 45 км н/о +12.4 +10.4 88 +10 +10 997.5 987.9
06 19.08 ЮЗ 4 50 км н/о +12.3 +10.1 86 +10 +10 997.9 988.3 +11.7 5
07 19.08 ЮЗ 4 50 км н/о +12.3 +9.4 82 +10 +10 998.4 988.8
08 19.08 ЮЗ 4 45 км н/о +13.2 +9.8 80 +11 +11 998.8 989.2

 

Местоположение метеостанции Алтнахарра (Великобритания): широта 58.28 долгота -4.43 высота над уровнем моря 80 м.

В архиве по умолчанию представлена погода на Алтнахарре за последнюю неделю. Архивные данные за месяц целиком и за предыдущие месяцы, начиная с января 2011 года, Вы можете получить, выбрав интересующий диапазон дат из раскрывающегося списка и нажав кнопку "Ввод!".


*Определитесь, кто Вы:
робот инопланетянин человек

Внимание! Время в таблицах - всемирное. Для получения местного времени необходимо прибавить поправку, которая равна 0 ч.

Смотрите также архив погоды в соседних городах и на ближайших метеорологических станциях:

Погода в Тейн-Рендже (Великобритания) (58 км)
Погода на Озере Гласкарнок (Великобритания) (68 км)
Погода в Уике (Великобритания) (81 км)
Погода в Олтбее (Великобритания) (84 км)
Погода в Кинлоссе (Великобритания) (87 км)
Погода на Сул-Скерри (Великобритания) (89 км)
Погода в Лоссимуте (Великобритания) (90 км)
Погода в Сторновее (Великобритания) (111 км)
Погода в Керкуолле (Великобритания) (116 км)
Погода на Перевале Bealach Na Ba (Великобритания) (121 км)

Пояснения к столбцам:

Ветер - указаны скорость ветра в м/с - средняя за 10 мин, порывы в срок и между сроками (в фигурных скобках) и направление, откуда дует ветер: С - северный, СВ - северо-восточный, В - восточный, ЮВ - юго-восточный, Ю - южный, ЮЗ - юго-западный, З - западный, СЗ - северо-западный.
Видимость - горизонтальная дальность видимости в метрах или километрах. При видимости от 1 до 10 км при отсутствии осадков обычно наблюдается дымка, при ухудшении видимости до 1 км и менее - туман. В сухую погоду видимость может ухудшаться дымом, пылью или мглою.
Явления - указаны атмосферные явления, наблюдавшиеся в срок или в последний час перед сроком; фигурными скобками обозначены явления, наблюдавшиеся между сроками (за 1-3 часа до срока); квадратными скобками обозначены град или гололедные отложения с указанием их диаметра в мм.
Облачность - указаны через наклонную черту общая и нижняя облачность в баллах и высота нижней границы облаков в метрах; квадратными скобками обозначены формы облаков: Ci - перистые, Cs - перисто-слоистые, Cc - перисто-кучевые, Ac - высококучевые, As - высокослоистые, Sc - слоисто-кучевые, Ns - слоисто-дождевые, Cu - кучевые, Cb - кучево-дождевые. Подробнее классификацию облаков см. в Атласе облаков (PDF).
T - Температура воздуха - температура, измеренная на высоте 2 м над землей.
Td - Температура точки росы - температура, при понижении до которой содержащийся в воздухе водяной пар достигнет насыщения.
f - Относительная влажность воздуха - влажноcть воздуха, измеренная на высоте 2 м над землей.
Te - Эффективная температура - температура, которую ощущает одетый по сезону человек в тени. Характеристика душности погоды. При расчете учитывается влияние влажности воздуха и скорости ветра на теплоощущения человека.
Tes - Эффективная температура на солнце - температура, которую ощущает человек, с поправкой на солнечный нагрев. Характеристика знойности погоды. Зависит от высоты солнца над горизонтом, облачности и скорости ветра. Ночью, в пасмурную погоду, а также при ветре 12 м/с и более поправка равна нулю.
P - Атмосферное давление - приведенное к уровню моря атмосферное давление.
Po - Атмосферное давление - измеренное на уровне метеостанции атмосферное давление.
Tmin - Минимальная температура - минимум температуры воздуха на высоте 2 м над землей.
Tmax - Максимальная температура - максимум температуры воздуха на высоте 2 м над землей.
R - Количество осадков - Количество выпавших осадков за период времени, мм. При наведении курсора мыши на число - период времени, за который выпало указанное количество осадков.
R24 - Количество осадков - Количество выпавших осадков за 24 часа, мм.
S - Снежный покров - Высота снежного покрова, см. При наведении курсора мыши на число - состояние снежного покрова и степень покрытия местности в баллах.